#timestamp,LO_Frequency,Hit,StdDev 
1515016815.9,286046999.7,N
1515016835.7,286046998.7,N
1515016855.6,286047001.6,N
1515016875.4,286047001.6,N
1515016895.2,286047004.1,N
1515016915.1,286047005.1,N
1515016916.0,286047005.1,N
1515016935.8,286047005.6,N
1515016955.6,286047003.3,N
1515016975.4,286047003.7,N
1515016995.3,286047000.1,N
1515017015.1,286046997.7,N
1515017035.8,286046993.9,N
1515017055.7,286046995.6,N
1515017075.5,286046999.2,N
1515017095.3,286046996.5,N
1515017115.2,286047001.0,N
1515017135.9,286046997.8,N
1515017155.7,286046995.9,N
1515017175.6,286046992.1,N
1515017195.4,286046995.7,N
1515017215.2,286046997.4,N
1515017235.1,286046998.1,N
1515017236.0,286046998.1,N
1515017255.8,286046998.9,N
1515017275.6,286046995.7,N
1515017295.4,286046994.5,N
1515017315.3,286046995.2,N
1515017335.1,286046992.5,N
1515017355.8,286046992.5,N
1515017375.7,286046992.9,N
1515017395.5,286046987.1,Y
1515017415.3,286046987.2,P
1515017435.2,286046985.0,N
1515017455.0,286046980.5,P
1515017455.9,286046980.5,N
1515017475.7,286046986.8,N
1515017495.6,286046988.0,N
1515017515.4,286046985.2,N
1515017535.2,286046981.6,Y
1515017555.1,286046992.3,P
1515017556.0,286046992.3,N
1515017575.8,286046992.3,N
1515017595.6,286046997.2,N
1515017615.5,286047001.0,N
1515017635.3,286047002.0,N
1515017655.1,286046995.2,N
1515017675.9,286046997.3,N
1515017695.7,286046999.3,N
1515017715.5,286046997.7,N
1515017735.4,286046994.9,N
1515017755.2,286046995.7,N
1515017775.0,286046997.1,N
1515017775.9,286046997.1,N
1515017795.7,286047000.9,N
1515017815.6,286047000.9,N
1515017835.4,286047000.7,N
1515017855.2,286046997.1,N
1515017875.1,286046994.1,N
1515017876.0,286046994.1,N
1515017895.8,286046999.0,N
1515017915.6,286046999.5,N
1515017935.5,286046995.2,N
1515017955.3,286046993.4,N
1515017975.1,286046995.4,N
1515017995.9,286046995.7,N
1515018015.7,286046993.7,N
1515018035.5,286046995.4,N
1515018055.3,286046993.4,N
1515018075.2,286046993.4,N
1515018095.0,286046993.7,N
1515018095.9,286046993.7,N
1515018115.7,286046993.6,N
1515018135.6,286046990.8,Y
1515018155.4,286046995.3,P
1515018175.2,286046993.6,P
1515018195.1,286046994.4,P
1515018196.0,286046994.4,Y
1515018215.8,286046998.6,P
1515018235.7,286046995.6,N
1515018255.5,286046996.6,N
1515018275.3,286047001.9,N
1515018295.1,286047004.1,N
1515018315.9,286047002.1,N
1515018335.7,286047002.4,N
1515018355.5,286047001.2,N
1515018375.4,286047001.3,N
1515018395.2,286047001.5,N
1515018415.0,286047000.1,N
1515018415.9,286047000.1,N
1515018435.8,286046998.1,N
1515018455.6,286046999.5,N
1515018475.4,286046998.6,N
1515018495.3,286047000.9,N
1515018515.1,286047001.7,N
1515018516.0,286047001.7,N
1515018535.8,286047007.6,Y
1515018555.7,286047006.2,P
1515018575.5,286047006.2,N
1515018595.3,286047009.9,P
1515018615.1,286047009.3,N
1515018635.9,286047015.1,Y
1515018655.7,286047011.8,P
1515018675.5,286047010.1,P
1515018695.4,286047013.4,P
1515018715.2,286047012.6,Y
1515018735.1,286047004.4,P
1515018736.0,286047004.4,N
1515018755.8,286047001.5,N
1515018775.6,286047001.5,N
1515018795.4,286047001.8,N
1515018815.3,286047000.5,N
1515018835.1,286047004.2,N
1515018855.8,286047005.5,N
1515018875.7,286047003.6,N
1515018895.5,286047000.6,N
1515018915.3,286046998.1,N
1515018935.2,286046996.8,N
1515018955.9,286046995.0,N
1515018975.7,286046998.6,N
1515018995.6,286047003.8,N
1515019015.4,286047000.1,N
1515019035.2,286046999.7,N
1515019055.1,286046999.7,N
1515019056.0,286046999.7,N
1515019075.8,286047005.1,N
1515019095.6,286047008.7,N
1515019115.4,286047007.2,N
1515019135.3,286047003.7,N
1515019155.1,286046999.8,N
1515019175.8,286047001.0,N
1515019195.7,286047000.7,N
1515019215.5,286046997.4,N
1515019235.3,286046993.7,N
1515019255.2,286046995.4,N
1515019275.9,286046995.4,N
1515019295.7,286046997.9,N
1515019315.6,286046994.1,N
1515019335.4,286046999.6,N
1515019355.2,286046995.0,N
1515019375.0,286046994.2,N
1515019376.0,286046994.2,N
1515019395.8,286046994.2,N
1515019415.6,286046990.3,N
1515019435.4,286046990.2,N
1515019455.3,286046988.6,N
1515019475.1,286046986.5,N
1515019495.9,286046984.0,Y
1515019515.7,286046989.6,P
1515019535.5,286046990.6,N
1515019555.3,286046990.2,N
1515019575.2,286046992.6,N
1515019595.0,286046992.3,N
1515019595.9,286046992.3,N
1515019615.8,286046990.3,Y
1515019635.6,286046997.6,P
1515019655.4,286046993.4,N
1515019675.2,286046996.4,N
1515019695.1,286046996.8,N
1515019696.0,286046996.8,N
1515019715.8,286046995.4,N
1515019735.6,286046994.5,N
1515019755.5,286046994.7,Y
1515019775.3,286047000.9,P
1515019795.1,286047000.4,N
1515019815.9,286046999.3,N
1515019835.7,286046997.2,N
1515019855.5,286046999.4,N
1515019875.4,286046997.4,N
1515019895.2,286046995.3,N
1515019915.0,286046997.2,N
1515019915.9,286046997.2,N
1515019935.8,286046996.6,N
1515019955.6,286046998.7,N
1515019975.4,286047001.0,N
1515019995.3,286047004.4,N
1515020015.1,286047009.0,Y
1515020016.0,286047009.0,P
1515020035.8,286047009.7,N
1515020055.7,286047009.8,N
1515020075.5,286047016.0,Y
1515020095.3,286047011.4,P
1515020115.2,286047015.7,P
1515020135.9,286047018.9,P
1515020155.7,286047025.8,Y
1515020175.6,286047014.2,P
1515020195.4,286047015.0,P
1515020215.2,286047017.7,P
1515020235.1,286047020.6,Y
1515020236.0,286047020.6,P
1515020255.8,286047012.1,P
1515020275.6,286047008.1,N
1515020295.5,286047010.8,N
1515020315.3,286047011.5,N
1515020335.1,286047012.6,Y
1515020355.9,286047004.2,P
1515020375.7,286047006.0,N
1515020395.5,286047007.5,N
